Weather in Zhoushan

China     29°58′03″N   122°14′43″E
temp.,
°C
wind,
m/s
gust,
m/s
humid.,
%
clouds,
%
prec.,
mm/h
press.,
hPa
HPBL,
m
17 june, thu
thu1723:00+23ene229651 0.1 100536
02:00+23e229699 0.1 100458
05:00+23ese3493100 0.0 1004241
08:00+23se3490100 0.0 1005291
11:00+25se4591100 0.1 1004320
14:00+25se4591100 0.2 1003284
17:00+25se4593100 0.1 1002222
20:00+24sse4597100 1.1 1003146
18 june, fri
fri1823:00+25s2398100 1.1 100467
02:00+24ssw2298100 1.3 100226
05:00+24w1297100 1.1 100216
08:00+24nw3599100 5.3 1003175
11:00+25nw3493100 1.0 1003227
14:00+26nne228899 1.0 1002264
17:00+25ne229384 0.2 1002146
20:00+24ne3495100 0.4 1003158
19 june, sat
sat1923:00+23ne3495100 0.6 1004264
02:00+22nne6794100 2.0 1003470
05:00+20nne7990100 0.8 1003468
08:00+21nne6792100 2.4 1005533
11:00+21ne6778100 0.3 1005634
14:00+20ne1284100 0.6 1004351
17:00+21nnw0179100 0.0 1004363
20:00+21e117794 0.0 1005202
20 june, sun
sun2023:00+21sse1176100 0.0 1004141
02:00+21ene1176100 0.0 1003129
05:00+22e1173100 0.0 1003177
08:00+21nne1178100 0.2 1004140
11:00+22nnw2373100 0.4 1004248
14:00+22nne3469100 0.8 1004566
17:00+22e3560100 0.1 1003487
20:00+22ssw2361100 0.1 1004114
21 june, mon
mon2123:00+22ese2372100 0.2 1005329
02:00+20sse3386100 0.9 1003253
05:00+20s2290100 0.7 1004160
08:00+20ssw2287100 0.8 1005294
11:00+21sw3384100 0.1 1005406
14:00+23w127577 0.1 1004600
17:00+23n348065 0.0 1004483
20:00+22nne238655 0.0 1006196